TimeCST,TemperatureF,Dew PointF,Humidity,Sea Level PressureIn,VisibilityMPH,Wind Direction,Wind SpeedMPH,Gust SpeedMPH,PrecipitationIn,Events,Conditions,WindDirDegrees,DateUTC
12:15 AM,32.0,31.5,98,30.12,2.5,Calm,Calm,-,N/A,,Clear,0,2012-12-01 06:15:00
12:35 AM,28.8,27.9,96,30.11,1.2,Calm,Calm,-,N/A,,Mist,0,2012-12-01 06:35:00
12:55 AM,30.0,29.1,96,30.11,2.5,Calm,Calm,-,N/A,,Clear,0,2012-12-01 06:55:00
1:15 AM,32.0,31.5,98,30.11,2.5,Calm,Calm,-,N/A,,Clear,0,2012-12-01 07:15:00
1:35 AM,30.7,30.0,97,30.11,3.0,Calm,Calm,-,N/A,,Clear,0,2012-12-01 07:35:00
1:55 AM,30.2,28.4,93,30.11,2.0,Calm,Calm,-,N/A,,Clear,0,2012-12-01 07:55:00
2:15 AM,30.2,29.1,96,30.11,5.0,Calm,Calm,-,N/A,,Clear,0,2012-12-01 08:15:00
2:35 AM,32.0,32.0,100,30.12,4.0,Calm,Calm,-,N/A,,Clear,0,2012-12-01 08:35:00
2:55 AM,28.0,26.8,95,30.12,2.5,Calm,Calm,-,N/A,,Clear,0,2012-12-01 08:55:00
3:15 AM,30.4,29.7,97,30.12,2.5,Calm,Calm,-,N/A,,Clear,0,2012-12-01 09:15:00
3:35 AM,31.1,30.4,97,30.11,4.0,ESE,4.6,-,N/A,,Clear,110,2012-12-01 09:35:00
3:55 AM,32.9,32.0,96,30.10,5.0,ESE,3.5,-,N/A,,Clear,120,2012-12-01 09:55:00
4:15 AM,33.4,32.2,95,30.10,5.0,ESE,3.5,-,N/A,,Clear,120,2012-12-01 10:15:00
4:35 AM,33.8,32.2,94,30.09,5.0,ESE,4.6,-,N/A,,Clear,110,2012-12-01 10:35:00
4:55 AM,34.3,32.5,93,30.09,5.0,Calm,Calm,-,N/A,,Clear,0,2012-12-01 10:55:00
5:15 AM,34.2,32.7,94,30.10,5.0,Calm,Calm,-,N/A,,Clear,0,2012-12-01 11:15:00
5:35 AM,33.1,31.8,95,30.10,4.0,East,3.5,-,N/A,,Clear,100,2012-12-01 11:35:00
6:15 AM,31.1,30.2,96,30.09,1.8,East,3.5,-,N/A,,Mist,100,2012-12-01 12:15:00
6:35 AM,32.7,32.2,98,30.10,3.0,ESE,4.6,-,N/A,,Clear,120,2012-12-01 12:35:00
6:55 AM,33.8,32.0,93,30.09,3.0,ESE,3.5,-,N/A,,Clear,110,2012-12-01 12:55:00
7:15 AM,34.0,33.1,96,30.09,3.0,ESE,3.5,-,N/A,,Clear,110,2012-12-01 13:15:00
7:35 AM,34.5,33.4,96,30.09,3.0,Calm,Calm,-,N/A,,Clear,0,2012-12-01 13:35:00
7:55 AM,35.8,34.7,96,30.09,3.0,ESE,3.5,-,N/A,,Clear,110,2012-12-01 13:55:00
8:15 AM,38.3,36.9,95,30.09,4.0,ESE,5.8,-,N/A,,Clear,120,2012-12-01 14:15:00
8:35 AM,39.6,37.8,93,30.08,4.0,SE,5.8,-,N/A,,Clear,130,2012-12-01 14:35:00
8:55 AM,41.0,38.8,92,30.08,4.0,SE,8.1,-,N/A,,Clear,140,2012-12-01 14:55:00
9:15 AM,42.8,40.1,90,30.09,4.0,SE,8.1,-,N/A,,Clear,140,2012-12-01 15:15:00
9:35 AM,44.8,41.7,89,30.09,5.0,SSE,8.1,-,N/A,,Clear,150,2012-12-01 15:35:00
9:55 AM,46.2,42.6,87,30.08,5.0,SSE,8.1,-,N/A,,Clear,160,2012-12-01 15:55:00
10:15 AM,47.7,43.7,86,30.07,5.0,SE,6.9,-,N/A,,Clear,140,2012-12-01 16:15:00
10:35 AM,49.1,44.6,84,30.06,5.0,SE,8.1,-,N/A,,Clear,140,2012-12-01 16:35:00
10:55 AM,50.2,45.5,84,30.04,5.0,SSE,10.4,-,N/A,,Haze,150,2012-12-01 16:55:00
11:15 AM,50.2,46.2,86,30.03,4.0,SE,8.1,-,N/A,,Scattered Clouds,130,2012-12-01 17:15:00
11:35 AM,50.2,47.3,90,30.02,3.0,SSE,9.2,-,N/A,,Overcast,150,2012-12-01 17:35:00
11:55 AM,50.4,47.8,91,30.02,2.5,SSE,6.9,-,N/A,,Overcast,160,2012-12-01 17:55:00
12:15 PM,51.3,48.6,90,30.01,2.5,South,4.6,-,N/A,,Mist,170,2012-12-01 18:15:00
12:35 PM,52.5,49.1,88,30.00,3.0,SSE,4.6,-,N/A,,Mist,150,2012-12-01 18:35:00
12:55 PM,54.1,49.8,85,29.99,4.0,SSE,8.1,-,N/A,,Scattered Clouds,150,2012-12-01 18:55:00
1:15 PM,55.2,49.3,80,29.99,5.0,SSE,6.9,-,N/A,,Haze,160,2012-12-01 19:15:00
1:35 PM,55.2,49.1,80,29.98,5.0,SE,6.9,-,N/A,,Haze,140,2012-12-01 19:35:00
1:55 PM,55.6,49.3,79,29.98,7.0,South,11.5,-,N/A,,Scattered Clouds,170,2012-12-01 19:55:00
2:15 PM,55.8,49.1,78,29.97,7.0,SE,8.1,-,N/A,,Scattered Clouds,140,2012-12-01 20:15:00
2:35 PM,56.3,49.5,78,29.97,7.0,SE,6.9,-,N/A,,Scattered Clouds,140,2012-12-01 20:35:00
2:55 PM,56.7,49.8,78,29.96,7.0,SE,5.8,-,N/A,,Mostly Cloudy,140,2012-12-01 20:55:00
3:15 PM,57.2,50.0,77,29.95,7.0,SE,5.8,-,N/A,,Scattered Clouds,130,2012-12-01 21:15:00
3:35 PM,56.7,50.0,78,29.94,7.0,SE,4.6,-,N/A,,Clear,130,2012-12-01 21:35:00
3:55 PM,56.8,50.2,78,29.94,7.0,SE,5.8,-,N/A,,Clear,130,2012-12-01 21:55:00
4:15 PM,57.7,50.5,77,29.94,10.0,SSE,8.1,-,N/A,,Scattered Clouds,150,2012-12-01 22:15:00
4:35 PM,59.0,50.9,74,29.94,10.0,SSE,11.5,-,N/A,,Mostly Cloudy,150,2012-12-01 22:35:00
4:55 PM,59.0,50.0,72,29.94,10.0,SSE,10.4,17.3,N/A,,Scattered Clouds,160,2012-12-01 22:55:00
5:15 PM,59.2,50.4,73,29.94,10.0,South,12.7,16.1,N/A,,Scattered Clouds,170,2012-12-01 23:15:00
5:35 PM,59.0,50.0,72,29.94,10.0,SSE,13.8,20.7,N/A,,Scattered Clouds,160,2012-12-01 23:35:00
5:55 PM,59.0,50.4,73,29.94,10.0,SSE,13.8,23.0,N/A,,Mostly Cloudy,160,2012-12-01 23:55:00
6:15 PM,59.0,50.4,73,29.94,10.0,SSE,15.0,18.4,N/A,,Overcast,160,2012-12-02 00:15:00
6:35 PM,59.0,50.4,73,29.94,10.0,SSE,13.8,23.0,N/A,,Overcast,160,2012-12-02 00:35:00
6:55 PM,58.5,50.2,74,29.94,10.0,South,12.7,20.7,N/A,,Overcast,170,2012-12-02 00:55:00
7:15 PM,58.6,50.0,73,29.93,10.0,SSE,11.5,18.4,N/A,,Overcast,160,2012-12-02 01:15:00
7:35 PM,58.3,50.0,74,29.93,10.0,South,12.7,18.4,N/A,,Overcast,170,2012-12-02 01:35:00
7:55 PM,58.3,50.0,74,29.93,10.0,South,11.5,19.6,N/A,,Overcast,170,2012-12-02 01:55:00
8:15 PM,58.3,50.0,74,29.93,10.0,South,13.8,20.7,N/A,,Mostly Cloudy,180,2012-12-02 02:15:00
8:35 PM,58.3,50.0,74,29.92,10.0,South,17.3,21.9,N/A,,Mostly Cloudy,170,2012-12-02 02:35:00
8:55 PM,58.3,50.0,74,29.91,10.0,South,15.0,25.3,N/A,,Scattered Clouds,170,2012-12-02 02:55:00
9:15 PM,58.3,50.0,74,29.92,10.0,South,13.8,24.2,N/A,,Mostly Cloudy,170,2012-12-02 03:15:00
9:35 PM,58.3,50.2,74,29.93,10.0,South,11.5,21.9,N/A,,Overcast,180,2012-12-02 03:35:00
9:55 PM,58.1,50.2,75,29.92,10.0,South,12.7,18.4,N/A,,Mostly Cloudy,170,2012-12-02 03:55:00
10:15 PM,58.1,50.2,75,29.92,10.0,South,17.3,21.9,N/A,,Scattered Clouds,170,2012-12-02 04:15:00
10:35 PM,58.1,50.2,75,29.91,10.0,South,13.8,20.7,N/A,,Mostly Cloudy,170,2012-12-02 04:35:00
10:55 PM,57.6,50.0,76,29.91,10.0,South,13.8,19.6,N/A,,Scattered Clouds,170,2012-12-02 04:55:00
11:15 PM,57.4,50.0,76,29.91,10.0,South,13.8,19.6,N/A,,Scattered Clouds,170,2012-12-02 05:15:00
11:35 PM,57.2,49.8,76,29.90,10.0,South,10.4,17.3,N/A,,Scattered Clouds,170,2012-12-02 05:35:00
11:55 PM,57.4,49.6,75,29.90,10.0,South,11.5,16.1,N/A,,Scattered Clouds,170,2012-12-02 05:55:00